Tracking 20066 objects as of 7-Dec-2019
HD Live streaming from Space Station
objects crossing your sky now

FENGYUN 1C DEB

Track FENGYUN 1C DEB now!
10-day predictions


NORAD ID: 38726
Int'l Code: 1999-025ETT
Perigee: 752.9 km
Apogee: 878.8 km
Inclination: 99.2 °
Period: 101.1 minutes
Semi major axis: 7186 km
RCS: 0.003 m2 (small)
Launch date: May 10, 1999
Source: People's Republic of China (PRC)
Launch site: Taiyaun Space Center, China (TSC)

Note: This is SATELLITE DEBRIS
aabbcc
Your satellite tracking list
Your tracking list is empty




NASA's NSSDC Master Catalog

Two Line Element Set (TLE):
1 38726U 99025ETT 19340.28196708 +.00001148 +00000-0 +49121-3 0  9993
2 38726 099.2012 179.9158 0087611 111.0756 249.9817 14.24931481382195
Source of the keplerian elements: AFSPC